{"data":{"norad_id":65467,"intl_designator":"2025-195K","name":"STARLINK-34816","alt_names":[],"object_type":"PAYLOAD","status":"ACTIVE","operator":null,"country":"US","launch_date":"2025-09-03","launch_site_code":"AFETR","launch_vehicle":null,"mission":null,"orbit_class":"UNKNOWN","rcs_meters":null,"size_class":null,"mass_kg":null,"dimensions":null,"purposes":["comms"],"wikipedia_slug":null,"has_3d_model":false,"image_url":null,"decayed_at":null,"tle_current":{"epoch":"2026-09-20T21:06:45.959040Z","epoch_age_seconds":82101,"freshness":"FRESH","line1":"1 65467U 25195K   26263.87969860  .00019502  00000+0  63786-3 0  9991","line2":"2 65467  53.1575  71.1526 0002791  76.1191 284.0121 15.31733974 59883","mean_motion":15.31733974,"eccentricity":0.0002791,"inclination_deg":53.1575,"raan_deg":71.1526,"arg_perigee_deg":76.1191,"mean_anomaly_deg":284.0121,"bstar":0.00063786,"rev_number":5988,"period_min":94.011102739959,"perigee_km":468.7272290673,"apogee_km":472.55021567553,"semimajor_km":6848.7757223714,"source":"CELESTRAK","updated_at":"2026-09-21T09:00:35.615726Z"}}}